{"data":{"norad_id":69047,"epoch":"2026-09-20T00:56:58.605216Z","epoch_age_seconds":63055,"freshness":"FRESH","line1":"1 69047U 26101Y   26263.03956719  .00018843  00000+0  58419-3 0  9998","line2":"2 69047  97.2833 116.6152 0000598  81.8182 278.3129 15.33463760 21117","mean_motion":15.3346376,"eccentricity":5.98e-5,"inclination_deg":97.2833,"raan_deg":116.6152,"arg_perigee_deg":81.8182,"mean_anomaly_deg":278.3129,"bstar":0.00058419,"rev_number":2111,"period_min":93.905055832555,"perigee_km":465.07810974931,"apogee_km":465.89660722259,"semimajor_km":6843.624358486,"source":"CELESTRAK","updated_at":"2026-09-20T09:00:44.062980Z"}}